Regional Weather Roundup
Issued by NWS Northern Indiana

Home | Current Version | Previous Version | Graphics & Text | Print | Product List | Glossary On
Versions: 1 2 3 4 5 6 7 8 9 10 11 12 13 14 15 16 17 18 19 20 21 22 23 24 25 26 27 28 29 30 31 32 33 34 35 36 37 38 39 40 41 42 43 44 45 46 47 48 49 50
000
ASUS43 KIWX 250400
RWRIWX

KIWX WEATHER ROUNDUP
NATIONAL WEATHER SERVICE NORTHERN INDIANA
1200 AM EDT WED APR 25 2018

NOTE: "FAIR" INDICATES FEW OR NO CLOUDS BELOW 12,000 FEET WITH NO
SIGNIFICANT WEATHER AND/OR OBSTRUCTIONS TO VISIBILITY.

* THESE STATIONS ARE NOT UNDER NWS QUALITY CONTROL. THEY ALSO MAY NOT
  REPORT WEATHER SUCH AS PRECIPITATION OR FOG.

INZ001>027-250500-
NORTHERN INDIANA

CITY           SKY/WX    TMP DP  RH WIND       PRES   REMARKS
KNOX*          CLOUDY    52  48  87 N5        29.98S
SOUTH BEND     CLOUDY    53  48  83 N5        29.99S
GOSHEN         CLOUDY    52  51  97 N3        29.97S FOG
MONTICELLO*    CLOUDY    54  49  82 N6        29.97F
ROCHESTER*     MOCLDY    55  52  88 CALM      29.97F
WARSAW*        LGT RAIN  52  52 100 N3        29.97S
FORT WAYNE     CLOUDY    53  51  93 NE7       29.96S

$$
INZ028>050-250500-
CENTRAL INDIANA

CITY           SKY/WX    TMP DP  RH WIND       PRES   REMARKS
LAFAYETTE      CLOUDY    55  50  83 N5        29.98S
KOKOMO*        CLOUDY    53  51  93 N6        29.97R
MUNCIE*        CLOUDY    54  52  93 N8        29.94S
INDIANAPOLIS   CLOUDY    53  51  93 NW7       29.95S

$$
MIZ043>046-050>051-056>058-064>065-071>073-077>080-250500-
SOUTHWEST LOWER MICHIGAN

CITY           SKY/WX    TMP DP  RH WIND       PRES   REMARKS
BATTLE CREEK   LGT RAIN  52  51  97 CALM      29.98S FOG
BENTON HARBOR  FAIR      46  41  82 CALM      29.99F
COLDWATER*     CLOUDY    51  51 100 CALM      29.97S
HILLSDALE*     CLOUDY    50  48  93 CALM      29.96S FOG
HOLLAND        CLOUDY    56  50  80 N6        30.00F
GRAND RAPIDS   LGT RAIN  53  52  96 N6        29.99F FOG
KALAMAZOO      CLOUDY    54  52  93 CALM      29.98S FOG
STURGIS*       CLOUDY    53  52  97 CALM      29.97S FOG
THREE RIVERS*  DRIZZLE   53  52  97 CALM      29.98S

$$
OHZ001>008-015>018-024>025-250500-
NORTHWEST OHIO

CITY           SKY/WX    TMP DP  RH WIND       PRES   REMARKS
WAUSEON*       CLOUDY    50  50 100 NE7       29.95S FOG
DEFIANCE       CLOUDY    50  48  93 NE6       29.95F
FINDLAY        CLOUDY    52  49  89 NE6       29.91F FOG
TOLEDO EXPRESS CLOUDY    50  50 100 NE5       29.94S FOG
TOLEDO METCALF CLOUDY    48  47  96 NE3       29.94F FOG
LIMA           FOG       51  51 100 N6        29.92S VSB 1/4

$$
AND FOR LAKE MICHIGAN COASTAL AND OPEN LAKE BUOY OBSERVATIONS

STATION/POSITION TEMP    WIND        PRES    VSBY  WAVE
                 AIR SEA DIR/SP/G                  HT/PER
                 (F)     (DEG/KT/KT) (MB)    (MI)  (FT/S)
CALUMET HARBOR    43     330/  8/ 11 1016.0F
MICHIGAN CITY     43     290/  4/  4   N/A
BURNS HARBOR      42     300/  3/  4 1016.6S
SAINT JOSEPH      46      30/  4/  9 1016.3
4 MI NW BRIDGMAN  43 44  350/  8/ 10 1016.4F         1/ 3

$$
&&




USA.gov is the U.S. government's official web portal to all federal, state and local government web resources and services.